Weather Roundup
Issued by NWS

Home | Current Version | Previous Version | Graphics & Text | Print | Product List | Glossary Off
Versions: 1 2 3 4 5 6 7 8 9 10 11 12 13 14 15 16 17 18 19 20 21 22 23 24 25 26 27 28 29 30 31 32 33 34 35 36 37 38 39 40 41 42 43 44 45 46 47 48 49 50

000
NZUS93 KARX 230510
HRRWXR

CURRENT HOURLY OBSERVATIONS ACROSS
MUCH OF THE UPPER MISSISSIPPI VALLEY
NATIONAL WEATHER SERVICE LA CROSSE WI
1200 AM CDT SUN APR 23 2017


...SOUTHEAST MINNESOTA...


CITY           SKY/WX    TMP DP  RH WIND       PRES   REMARKS
ROCHESTER      CLEAR     47  38  71 SW9       30.13S
ROCHESTER/MAYO FAIR      55  36  49 CALM      30.13S
WINONA         CLEAR     48  43  81 CALM      30.13R
AUSTIN         CLEAR     48  36  61 SW3       30.13S
ALBERT LEA     CLEAR     52  41  66 SW3       30.13F
DODGE CENTER   CLEAR     48  37  66 SW3       30.13S
PRESTON        CLEAR     48  33  55 SW8       30.14S
OWATONNA       CLEAR     52  36  54 S7        30.12F
FARIBAULT      PTCLDY    46  39  76 S3        30.12S
$$

...ELSEWHERE IN MINNESOTA...


CITY           SKY/WX    TMP DP  RH WIND       PRES   REMARKS
MINNEAPOLIS    CLEAR     56  36  47 CALM      30.09F
INTNL FALLS    CLOUDY    34  30  85 N10       30.18R WCI  26
DULUTH         PTCLDY    45  41  86 NE7       30.07R
RED WING       CLEAR     46  37  71 CALM      30.10S
REDWOOD FALLS  CLEAR     53  35  50 SW8       30.11S
MANKATO        CLEAR     55  35  47 SW8       30.12S
WORTHINGTON    CLEAR     52  35  52 SW12      30.15F
FAIRMONT       CLEAR     51  39  63 SW8       30.14S
$$

...SOUTHWEST WISCONSIN...


CITY           SKY/WX    TMP DP  RH WIND       PRES   REMARKS
LA CROSSE      CLEAR     51  41  68 S5        30.12S
PRAIRIE DU CHI CLEAR     43  33  68 CALM      30.14F
BOSCOBEL       CLEAR     41  35  79 CALM      30.15S
LONE ROCK      CLEAR     42  36  79 CALM      30.14F
PLATTEVILLE    CLEAR     50  30  45 S3        30.15F
FORT MC COY    CLEAR     36  31  83 CALM      30.14R
CAMP DOUGLAS   CLEAR     37  33  84 CALM      30.12S
MAUSTON-NEW LI CLEAR     43  40  87 CALM      30.11F
VIROQUA        FAIR      50  28  42 S6        30.13F
WIS DELLS      CLEAR     42  32  66 S5        30.12F
$$

...ELSEWHERE IN WISCONSIN...


CITY           SKY/WX    TMP DP  RH WIND       PRES   REMARKS
MILWAUKEE      CLEAR     44  28  53 CALM      30.14F
MADISON        CLEAR     44  34  67 CALM      30.14S
GREEN BAY      CLEAR     50  36  58 SW3       30.10S
EAU CLAIRE     CLEAR     49  35  58 S5        30.09S
BLACK RVR FLS  FAIR      38  33  82 CALM      30.11S
MEDFORD        CLEAR     48  33  56 SW6       30.09S
WAUSAU         CLEAR     48  32  53 CALM      30.08S
WIS RAPIDS     CLEAR     43  33  68 CALM      30.12S
MARSHFIELD     CLEAR     49  31  49 W3        30.10S
RICE LAKE      CLEAR     45  37  73 CALM      30.09F
$$

...NORTHEAST IOWA...


CITY           SKY/WX    TMP DP  RH WIND       PRES   REMARKS
WATERLOO       CLEAR     45  36  70 CALM      30.15F
DUBUQUE        CLEAR     43  35  73 CALM      30.16F
DECORAH        CLEAR     52  30  43 S5        30.13S
MASON CITY     CLEAR     46  34  62 S6        30.16S
CHARLES CITY   CLEAR     52  30  43 S7        30.15S
OELWEIN        CLEAR     48  34  57 S5        30.16F
$$

...ELSEWHERE IN IOWA...


CITY           SKY/WX    TMP DP  RH WIND       PRES   REMARKS
DES MOINES     CLEAR     53  30  41 CALM      30.18S
IOWA CITY      CLEAR     44  34  67 CALM      30.18S
FORT DODGE     CLEAR     43  34  70 CALM      30.17S
MARSHALLTOWN   CLEAR     45  33  63 S3        30.15F
CEDAR RAPIDS   CLEAR     49  29  46 CALM      30.16F
$$

...NORTHERN ILLINOIS...


CITY           SKY/WX    TMP DP  RH WIND       PRES   REMARKS
CHICAGO-OHARE  CLEAR     45  23  42 CALM      30.15F
CHICAGO-MIDWAY CLEAR     47  26  44 SE3       30.16S
MOLINE         CLEAR     44  37  76 CALM      30.16S
ROCKFORD       CLEAR     44  35  70 S3        30.17F
PEORIA         CLEAR     47  27  45 NE5       30.16R
$$

NOTE: "FAIR" INDICATES FEW OR NO CLOUDS BELOW 12,000 FEET WITH NO
SIGNIFICANT WEATHER AND/OR OBSTRUCTIONS TO VISIBILITY. WIND
SPEEDS ARE IN MILES-PER-HOUR.




USA.gov is the U.S. government's official web portal to all federal, state and local government web resources and services.